Fort Atkinson, Wisconsin, United States (53538)
Lat: 42.93N, Lon: 88.84W
Wx Zone: WIZ064
Local Info
Past Weather Observations for Today

NOTE: This archive is for the closest National Weather Service station to Fort Atkinson. Information may differ from the station used for current weather conditions.

Click here for Long-term Archive

Time Weather Temperature Dewpoint Humidity Pressure Winds Precip Visibility
12:15
Overcast
Fog And Mist
34°F / 1°C 32°F / 0°C 93% 30.06 in
(1018 mb)
S 9.2 mph
(S 15 kph)
- 5SM
11:55
Overcast
Fog And Mist
34°F / 1°C 32°F / 0°C 93% 30.06 in
(1018 mb)
S 11.5 mph
(S 19 kph)
- 5SM
11:35
Overcast
Fog And Mist
34°F / 1°C 32°F / 0°C 93% 30.09 in
(1019 mb)
S 9.2 mph
(S 15 kph)
- 5SM
11:15
Overcast
Fog And Mist
34°F / 1°C 32°F / 0°C 93% 30.09 in
(1019 mb)
SSE 8.1 mph
(SSE 13 kph)
- 5SM
10:55
Overcast
Fog And Mist
34°F / 1°C 32°F / 0°C 93% 30.09 in
(1019 mb)
SSE 10.4 mph
(SSE 17 kph)
- 5SM
10:35
Overcast
Fog And Mist
34°F / 1°C 32°F / 0°C 93% 30.12 in
(1020 mb)
S 6.9 mph
(S 11 kph)
- 5SM
10:15
Overcast
Fog And Mist
34°F / 1°C 32°F / 0°C 93% 30.12 in
(1020 mb)
SSE 8.1 mph
(SSE 13 kph)
- 5SM
09:55
Overcast
Fog And Mist
34°F / 1°C 32°F / 0°C 93% 30.12 in
(1020 mb)
S 9.2 mph
(S 15 kph)
- 5SM
09:35
Overcast
Fog And Mist
32°F / 0°C 32°F / 0°C 100% 30.12 in
(1020 mb)
SSE 8.1 mph
(SSE 13 kph)
- 4SM
09:15
Overcast
Fog And Mist
32°F / 0°C 32°F / 0°C 100% 30.12 in
(1020 mb)
SSE 8.1 mph
(SSE 13 kph)
- 4SM
08:55
Overcast
Fog And Mist
32°F / 0°C 32°F / 0°C 100% 30.12 in
(1020 mb)
S 5.8 mph
(S 9 kph)
- 4SM
08:35
Overcast
Fog And Mist
32°F / 0°C 32°F / 0°C 100% 30.12 in
(1020 mb)
SSE 6.9 mph
(SSE 11 kph)
- 4SM
08:15
Overcast
Fog And Mist
32°F / 0°C 32°F / 0°C 100% 30.12 in
(1020 mb)
SSE 6.9 mph
(SSE 11 kph)
- 4SM
07:55
Overcast
Fog And Mist
32°F / 0°C 32°F / 0°C 100% 30.12 in
(1020 mb)
SSE 6.9 mph
(SSE 11 kph)
- 4SM
07:35
Overcast
Fog And Mist
32°F / 0°C 32°F / 0°C 100% 30.15 in
(1021 mb)
S 8.1 mph
(S 13 kph)
- 5SM
07:15
Overcast
Fog And Mist
32°F / 0°C 32°F / 0°C 100% 30.15 in
(1021 mb)
SSE 8.1 mph
(SSE 13 kph)
- 5SM
06:55
Overcast
Fog And Mist
32°F / 0°C 32°F / 0°C 100% 30.15 in
(1021 mb)
SSE 6.9 mph
(SSE 11 kph)
- 5SM
06:35
Overcast
Fog And Mist
32°F / 0°C 32°F / 0°C 100% 30.15 in
(1021 mb)
SSE 5.8 mph
(SSE 9 kph)
- 4SM
06:15
Overcast
Light Snow
32°F / 0°C 32°F / 0°C 100% 30.15 in
(1021 mb)
SSE 4.6 mph
(SSE 7 kph)
- 2 1/2SM
05:55
Overcast
Fog And Mist
32°F / 0°C 30°F / -1°C 93% 30.15 in
(1021 mb)
SSE 5.8 mph
(SSE 9 kph)
- 5SM
05:35
Overcast
Fog And Mist
32°F / 0°C 30°F / -1°C 93% 30.15 in
(1021 mb)
SSE 6.9 mph
(SSE 11 kph)
- 5SM
05:15
Overcast
Fog And Mist
32°F / 0°C 30°F / -1°C 93% 30.15 in
(1021 mb)
SSE 4.6 mph
(SSE 7 kph)
- 5SM
04:55
Overcast
Fog And Mist
30°F / -1°C 30°F / -1°C 100% 30.15 in
(1021 mb)
SSE 6.9 mph
(SSE 11 kph)
- 5SM
04:35
Overcast
Fog And Mist
30°F / -1°C 30°F / -1°C 100% 30.15 in
(1021 mb)
SSE 5.8 mph
(SSE 9 kph)
- 5SM
04:15
Overcast
Fog And Mist
30°F / -1°C 30°F / -1°C 100% 30.15 in
(1021 mb)
SSE 4.6 mph
(SSE 7 kph)
- 5SM
03:55
Overcast
30°F / -1°C 30°F / -1°C 100% 30.15 in
(1021 mb)
SSE 5.8 mph
(SSE 9 kph)
- 7SM
03:35
Overcast
30°F / -1°C 30°F / -1°C 100% 30.18 in
(1022 mb)
SSE 4.6 mph
(SSE 7 kph)
- 7SM
03:15
Overcast
30°F / -1°C 28°F / -2°C 93% 30.18 in
(1022 mb)
SSE 4.6 mph
(SSE 7 kph)
- 7SM
02:55
Overcast
30°F / -1°C 28°F / -2°C 93% 30.18 in
(1022 mb)
SSE 3.5 mph
(SSE 6 kph)
- 7SM
02:35
Overcast
30°F / -1°C 28°F / -2°C 93% 30.18 in
(1022 mb)
SSE 3.5 mph
(SSE 6 kph)
- 7SM
02:15
Overcast
30°F / -1°C 28°F / -2°C 93% 30.18 in
(1022 mb)
SSE 3.5 mph
(SSE 6 kph)
- 7SM
01:55
Overcast
30°F / -1°C 28°F / -2°C 93% 30.18 in
(1022 mb)
Calm - 7SM
01:35
Overcast
30°F / -1°C 28°F / -2°C 93% 30.18 in
(1022 mb)
Calm - 7SM
01:15
Overcast
30°F / -1°C 28°F / -2°C 93% 30.18 in
(1022 mb)
SSE 3.5 mph
(SSE 6 kph)
- 7SM
00:55
Overcast
30°F / -1°C 28°F / -2°C 93% 30.18 in
(1022 mb)
SSE 4.6 mph
(SSE 7 kph)
- 7SM
00:35
Overcast
30°F / -1°C 28°F / -2°C 93% 30.18 in
(1022 mb)
SSE 5.8 mph
(SSE 9 kph)
- 7SM
00:15
Overcast
30°F / -1°C 28°F / -2°C 93% 30.18 in
(1022 mb)
SSE 4.6 mph
(SSE 7 kph)
- 7SM
Time Weather Temperature Dewpoint Humidity Pressure Winds Precip Visibility


Weather for websites

WeatherForYou.com, LLC is not responsible for any damages or problems caused by this service. Current weather conditions are obtained from the closest station including government and personal stations which may have varying degrees of accuracy. Weather forecasts are derived from the NOAA NDFD. Like all things, this site belongs to Jesus Christ... He just trusts me to maintain it. If you have any questions or comments email webmaster@weatherforyou.com

Copyright © 2014, WeatherForYou.com LLC. All rights reserved.